Location: Pinon Hills
(34.4429°N, 117.6403°W)
Time: 02:53:55
(UTC-07:00)

Amateur Radio Satellites - All Passes

Search period start: 30 August 2015 02:23
Search period end: 31 August 2015 02:23
Location: Pinon Hills, 34.4429°N, 117.6403°W

Satellite Date Start Highest point End Downlink Frequencies (MHz)
Time Altitude Azimuth
Oscar 19 30 Aug 02:27:06 02:32:20 83° 284° (WNW) 02:37:31 437.125/150
STARS 30 Aug 02:34:41 02:37:32 18° 69° (ENE) 02:40:32 437.465
BEESAT 30 Aug 02:39:48 02:44:06 33° 263° (W) 02:48:23 436.000
GONETS M04 30 Aug 02:40:58 02:49:07 49° 90° (E) 02:57:22
KKS-1 30 Aug 02:46:39 02:50:50 42° 73° (ENE) 02:55:03 437.445
JAS-2 30 Aug 02:47:51 02:52:58 23° 89° (E) 02:57:52 435.910
Gurwin Techsat 1B 30 Aug 02:51:36 02:56:45 49° 99° (E) 03:01:53 435.225
PCSat 30 Aug 02:59:04 03:04:12 42° 301° (WNW) 03:09:20 145.827
Cosmos 2499 30 Aug 03:05:00 03:08:47 15° 80° (E) 03:13:21 435.465 / 435.565
SWISSCUBE 30 Aug 03:07:04 03:10:04 16° 268° (W) 03:12:51 437.505
ITAMSAT 1 30 Aug 03:21:23 03:26:36 80° 103° (ESE) 03:31:47 435.822/435.867
SO-50 30 Aug 03:23:20 03:25:02 11° 318° (NW) 03:26:31 436.795
RS-15 30 Aug 03:46:03 03:56:38 36° 253° (WSW) 04:07:04 29.354- 29.394
HORYU 2 30 Aug 03:53:30 03:56:24 17° 93° (E) 03:59:27 437.375
VERMONT LUNAR 30 Aug 03:54:35 03:57:28 47° 152° (SSE) 04:00:22 437.305
STARS 30 Aug 04:09:41 04:13:44 35° 263° (W) 04:17:46 437.465
AO-7 30 Aug 04:17:09 04:24:58 45° 100° (E) 04:32:50 29.400- 29.500
MOZHAYETS 4 30 Aug 04:20:43 04:25:17 61° 76° (ENE) 04:29:51
KKS-1 30 Aug 04:25:10 04:27:42 14° 268° (W) 04:30:00 437.445
JAS-2 30 Aug 04:31:46 04:38:31 50° 289° (WNW) 04:44:27 435.910
Gurwin Techsat 1B 30 Aug 04:32:47 04:36:23 18° 293° (WNW) 04:39:45 435.225
GONETS M04 30 Aug 04:38:41 04:46:16 31° 288° (WNW) 04:53:39
Cosmos 2499 30 Aug 04:52:32 05:00:49 89° 96° (E) 05:09:41 435.465 / 435.565
ITAMSAT 1 30 Aug 05:04:05 05:05:31 11° 296° (WNW) 05:06:36 435.822/435.867
O/OREOS (USA 219) 30 Aug 05:14:01 05:18:20 40° 66° (ENE) 05:22:40 437.305
HORYU 2 30 Aug 05:29:06 05:33:10 34° 288° (WNW) 05:37:09 437.375
VERMONT LUNAR 30 Aug 05:31:11 05:33:58 34° 346° (NNW) 05:36:45 437.305
PHONESAT 2.4 30 Aug 05:37:08 05:40:05 28° 147° (SSE) 05:43:03 2401.200-2431.200
MOZHAYETS 4 30 Aug 06:02:13 06:02:58 10° 271° (W) 06:03:22
CUBESAT XI-V 30 Aug 06:09:09 06:13:44 75° 76° (ENE) 06:18:20 437.345
AO-7 30 Aug 06:10:14 06:17:37 36° 296° (WNW) 06:24:49 29.400- 29.500
Cubesat XI-IV 30 Aug 06:25:37 06:30:08 28° 96° (E) 06:34:44 437.490
Cosmos 2499 30 Aug 06:50:12 06:55:26 16° 297° (WNW) 07:00:15 435.465 / 435.565
STRAND 1 30 Aug 06:50:56 06:55:53 54° 73° (ENE) 07:00:51 437.568
O/OREOS (USA 219) 30 Aug 06:54:39 06:57:27 16° 259° (W) 07:00:03 437.305
BRITE-PL 30 Aug 06:58:38 06:59:34 11° 88° (E) 07:00:59 437.365/2234.400
VERMONT LUNAR 30 Aug 07:08:21 07:10:51 24° 3° (N) 07:13:22 437.305
CUTE-I 30 Aug 07:10:35 07:15:55 81° 101° (ESE) 07:21:16 437.470
PHONESAT 2.4 30 Aug 07:14:30 07:17:50 55° 341° (NNW) 07:21:12 2401.200-2431.200
PRISM 30 Aug 07:24:05 07:28:12 89° 80° (E) 07:32:18 437.425
AIST 1 30 Aug 07:30:28 07:32:49 15° 89° (E) 07:35:20
GOMX 1 30 Aug 07:35:20 07:38:18 15° 90° (E) 07:41:34 467.674
DOVE 4 30 Aug 07:58:01 08:00:48 15° 89° (E) 08:03:52 437.250
Cubesat XI-IV 30 Aug 08:05:36 08:10:12 30° 290° (WNW) 08:14:44 437.490
YUBILEINY 30 Aug 08:08:28 08:16:46 45° 76° (ENE) 08:25:06 435.215
SEEDS 30 Aug 08:32:03 08:34:07 14° 91° (E) 08:36:25 437.485
STRAND 1 30 Aug 08:32:37 08:35:28 14° 269° (W) 08:38:03 437.568
BRITE-PL 30 Aug 08:33:09 08:38:42 84° 283° (WNW) 08:44:24 437.365/2234.400
VERMONT LUNAR 30 Aug 08:44:43 08:47:38 52° 19° (NNE) 08:50:34 437.305
Cosmos 2491 30 Aug 08:50:39 08:58:48 48° 90° (E) 09:07:04 435.465 / 435.565
PHONESAT 2.4 30 Aug 08:53:07 08:56:06 28° 358° (N) 08:59:07 2401.200-2431.200
CUTE-I 30 Aug 08:53:47 08:55:25 11° 296° (WNW) 08:56:41 437.470
CINEMA 3 30 Aug 08:55:44 08:59:41 24° 93° (E) 09:03:39 145.822/145.860
COMPASS 1 30 Aug 08:56:05 08:59:12 21° 94° (E) 09:02:24 437.405
AIST 1 30 Aug 09:06:21 09:10:12 33° 282° (WNW) 09:14:02
AAUSAT CUBESAT 2 30 Aug 09:07:43 09:11:02 24° 95° (E) 09:14:25 437.432
GOMX 1 30 Aug 09:11:25 09:16:48 60° 285° (WNW) 09:22:11 467.674
HO-68 30 Aug 09:17:29 09:24:39 67° 103° (ESE) 09:31:48 435.675
ISS 30 Aug 09:20:47 09:24:00 71° 319° (NW) 09:27:14 145.825
UNISAT 6 30 Aug 09:21:19 09:22:28 11° 66° (ENE) 09:23:56 437.425
CUTE 1.7 + AOD 2 30 Aug 09:27:36 09:31:50 89° 296° (WNW) 09:36:03 437.475
AUBIESAT-1 30 Aug 09:30:52 09:33:56 18° 64° (ENE) 09:37:10 437.475
DOVE 4 30 Aug 09:33:44 09:38:57 58° 285° (WNW) 09:44:06 437.250
M-CUBED/EXP-1 PRIME 30 Aug 09:33:49 09:37:28 23° 65° (ENE) 09:41:14 437.505
CANX-2 30 Aug 09:41:26 09:45:33 52° 285° (WNW) 09:49:38 2200.000
DELFI C3 30 Aug 09:44:50 09:47:19 16° 93° (E) 09:49:55 145.870
TIGRISAT 30 Aug 09:48:06 09:51:34 22° 70° (ENE) 09:55:11 435.000
Oscar 11 30 Aug 10:02:12 10:06:22 46° 99° (E) 10:10:30 145.826/435.025
ANTELSAT 30 Aug 10:03:42 10:07:50 33° 72° (ENE) 10:12:04 437.575/2403.000
YUBILEINY 30 Aug 10:05:38 10:13:25 35° 273° (W) 10:20:57 435.215
SEEDS 30 Aug 10:06:14 10:10:07 37° 286° (WNW) 10:13:56 437.485
HUMSAT D 30 Aug 10:07:34 10:08:23 11° 89° (E) 10:09:30 437.325/437.525
SO-50 30 Aug 10:14:13 10:18:39 33° 53° (NE) 10:23:01 436.795
Cosmos 2504 30 Aug 10:19:37 10:27:25 40° 75° (ENE) 10:34:54 435.465 / 435.565
VERMONT LUNAR 30 Aug 10:21:28 10:23:56 23° 213° (SSW) 10:26:24 437.305
PHONESAT 2.4 30 Aug 10:31:13 10:34:27 41° 15° (NNE) 10:37:41 2401.200-2431.200
COMPASS 1 30 Aug 10:31:25 10:34:50 24° 288° (WNW) 10:38:09 437.405
CINEMA 3 30 Aug 10:32:27 10:36:53 31° 288° (WNW) 10:41:08 145.822/145.860
CUBEBUG 2 30 Aug 10:33:54 10:38:33 65° 285° (WNW) 10:43:04 437.445
ZACube-1 30 Aug 10:41:24 10:45:56 87° 105° (ESE) 10:50:19 437.345
AAUSAT CUBESAT 2 30 Aug 10:43:19 10:46:31 21° 289° (WNW) 10:49:37 437.432
UWE-3 30 Aug 10:44:29 10:49:03 64° 284° (WNW) 10:53:27 435.000/436.395/437.385
CUSAT 1 30 Aug 10:45:55 10:53:09 41° 75° (ENE) 11:00:51 437.405
POLYITAN 1 30 Aug 10:47:24 10:51:12 33° 73° (ENE) 10:55:06 437.675
FUNcube-1 30 Aug 10:47:36 10:52:07 82° 281° (W) 10:56:28 145.935
Cosmos 2491 30 Aug 10:48:18 10:55:57 32° 288° (WNW) 11:03:23 435.465 / 435.565
POPSAT HIP 1 30 Aug 10:50:39 10:54:29 35° 73° (ENE) 10:58:25 437.405
DUCHIFAT 1 30 Aug 10:52:38 10:56:28 36° 73° (ENE) 11:00:23 145.980
UNISAT 6 30 Aug 10:54:06 10:58:44 66° 260° (W) 11:03:26 437.425
ISS 30 Aug 11:00:23 11:00:56 10° 335° (NNW) 11:01:23 145.825
DANDE 30 Aug 11:01:20 11:08:16 38° 75° (ENE) 11:16:03 436.750
AUBIESAT-1 30 Aug 11:03:46 11:08:18 45° 257° (WSW) 11:12:50 437.475
HO-68 30 Aug 11:06:36 11:11:51 21° 298° (WNW) 11:16:47 435.675
QB50P2 30 Aug 11:06:49 11:10:59 59° 75° (ENE) 11:15:13 145.880/145.840
M-CUBED/EXP-1 PRIME 30 Aug 11:07:38 11:12:01 35° 259° (WSW) 11:16:23 437.505
BUGSAT 1 30 Aug 11:07:53 11:11:27 32° 73° (ENE) 11:15:07 437.445
NANOSAT C BR1 30 Aug 11:09:10 11:13:19 60° 76° (ENE) 11:17:31 145.865
DELFI C3 30 Aug 11:18:57 11:22:26 28° 287° (WNW) 11:25:50 145.870
QB50P1 30 Aug 11:22:03 11:26:17 89° 84° (E) 11:30:34 145.935-145.965
TIGRISAT 30 Aug 11:23:57 11:28:07 32° 264° (W) 11:32:18 435.000
ESTCUBE 1 30 Aug 11:24:01 11:27:33 23° 95° (E) 11:31:11 437.505/2401.250
DX 1 30 Aug 11:27:22 11:31:41 57° 100° (E) 11:36:00 434.975-435.025
Oscar 11 30 Aug 11:40:08 11:42:10 13° 292° (WNW) 11:43:59 145.826/435.025
HUMSAT D 30 Aug 11:40:23 11:44:29 49° 285° (WNW) 11:48:30 437.325/437.525
ANTELSAT 30 Aug 11:41:09 11:44:40 20° 267° (W) 11:48:06 437.575/2403.000
UKube-1 30 Aug 11:42:34 11:46:55 78° 101° (E) 11:51:16 .
AISAT 30 Aug 11:42:44 11:47:08 55° 100° (E) 11:51:33 437.250
CUBEBUG 1 30 Aug 11:48:38 11:52:42 36° 98° (E) 11:56:47 437.445
PCSat 30 Aug 11:50:08 11:55:33 71° 63° (ENE) 12:00:57 145.827
SPROUT 30 Aug 11:53:23 11:54:02 10° 90° (E) 11:54:59 437.525
SO-50 30 Aug 11:55:02 11:59:03 25° 249° (WSW) 12:02:54 436.795
Oscar 19 30 Aug 12:06:04 12:06:40 10° 64° (ENE) 12:07:36 437.125/150
50 SAT 30 Aug 12:08:55 12:12:42 51° 285° (WNW) 12:16:24 437.505
PHONESAT 2.4 30 Aug 12:09:05 12:12:22 45° 210° (SSW) 12:15:38 2401.200-2431.200
VELOX 1 30 Aug 12:11:24 12:15:52 71° 283° (WNW) 12:20:19 145.980
Cosmos 2504 30 Aug 12:11:58 12:19:32 37° 273° (W) 12:26:32 435.465 / 435.565
POLYITAN 1 30 Aug 12:24:26 12:27:14 16° 267° (W) 12:29:52 437.675
POPSAT HIP 1 30 Aug 12:27:54 12:30:31 15° 268° (W) 12:32:57 437.405
CUSAT 1 30 Aug 12:28:24 12:35:42 41° 268° (W) 12:43:07 437.405
DUCHIFAT 1 30 Aug 12:29:54 12:32:26 15° 268° (W) 12:34:48 145.980
JUGNU 30 Aug 12:31:36 12:32:16 10° 165° (SSE) 12:33:05 437.505
DANDE 30 Aug 12:44:11 12:51:27 44° 267° (W) 12:59:19 436.750
BUGSAT 1 30 Aug 12:44:30 12:47:02 15° 267° (W) 12:49:25 437.445
GONETS M04 30 Aug 12:56:47 13:02:28 19° 66° (ENE) 13:08:39
ESTCUBE 1 30 Aug 13:00:35 13:04:24 27° 289° (WNW) 13:08:06 437.505/2401.250
TISAT 1 30 Aug 13:00:51 13:04:50 38° 98° (E) 13:08:50 437.305
DX 1 30 Aug 13:06:06 13:07:30 11° 293° (WNW) 13:08:39 434.975-435.025
AISAT 30 Aug 13:21:26 13:23:17 12° 293° (WNW) 13:24:54 437.250
CUBEBUG 1 30 Aug 13:25:50 13:28:47 17° 291° (WNW) 13:31:35 437.445
SPROUT 30 Aug 13:26:15 13:30:29 53° 285° (WNW) 13:34:42 437.525
SWISSCUBE 30 Aug 13:32:46 13:35:17 15° 92° (E) 13:38:02 437.505
PCSat 30 Aug 13:36:15 13:38:26 12° 255° (WSW) 13:40:16 145.827
Oscar 19 30 Aug 13:40:14 13:45:24 83° 259° (W) 13:50:37 437.125/150
Gurwin Techsat 1B 30 Aug 14:09:05 14:14:14 55° 74° (ENE) 14:19:27 435.225
ITUPSAT 1 30 Aug 14:09:06 14:13:23 33° 97° (E) 14:17:42 437.325
JUGNU 30 Aug 14:16:51 14:20:36 17° 174° (S) 14:24:21 437.505
ITAMSAT 1 30 Aug 14:35:45 14:40:55 84° 79° (ENE) 14:46:08 435.822/435.867
JAS-2 30 Aug 14:37:05 14:44:19 54° 72° (ENE) 14:51:57 435.910
TISAT 1 30 Aug 14:37:45 14:40:18 15° 291° (WNW) 14:42:40 437.305
BEESAT 30 Aug 14:42:57 14:47:44 83° 104° (ESE) 14:52:28 436.000
KKS-1 30 Aug 14:43:55 14:44:50 11° 90° (E) 14:46:02 437.445
Cosmos 2499 30 Aug 14:49:39 14:56:33 27° 69° (ENE) 15:03:22 435.465 / 435.565
HORYU 2 30 Aug 14:50:03 14:51:23 11° 66° (ENE) 14:52:58 437.375
GONETS M04 30 Aug 14:51:35 15:00:24 77° 265° (W) 15:09:11
SWISSCUBE 30 Aug 15:08:52 15:13:25 46° 287° (WNW) 15:17:57 437.505
AO-7 30 Aug 15:12:08 15:19:53 46° 66° (ENE) 15:27:44 29.400- 29.500
BEESAT 3 30 Aug 15:21:40 15:25:43 84° 298° (WNW) 15:29:49 437.485
SRMSAT 30 Aug 15:24:23 15:27:34 15° 170° (S) 15:30:50 437.500
BEESAT 2 30 Aug 15:31:31 15:35:37 88° 298° (WNW) 15:39:45 435.950
ITUPSAT 1 30 Aug 15:47:28 15:51:05 21° 291° (WNW) 15:54:34 437.325
ISS 30 Aug 15:51:22 15:54:05 24° 34° (NE) 15:56:50 145.825
Gurwin Techsat 1B 30 Aug 15:51:32 15:54:38 15° 269° (W) 15:57:28 435.225
RS-15 30 Aug 15:51:58 16:02:19 54° 111° (ESE) 16:13:04 29.354- 29.394
AIST 2 30 Aug 15:58:22 16:02:05 31° 113° (ESE) 16:05:51 435.215
STARS 30 Aug 16:02:26 16:06:48 54° 100° (E) 16:11:09 437.465
JUGNU 30 Aug 16:04:59 16:08:56 19° 184° (S) 16:12:52 437.505
KKS-1 30 Aug 16:17:27 16:21:52 56° 286° (WNW) 16:26:15 437.445
MOZHAYETS 4 30 Aug 16:20:26 16:23:33 19° 93° (E) 16:26:51
HORYU 2 30 Aug 16:23:07 16:27:33 59° 260° (W) 16:32:00 437.375
JAS-2 30 Aug 16:23:16 16:29:40 29° 268° (W) 16:36:06 435.910
Cosmos 2499 30 Aug 16:41:54 16:50:17 55° 269° (W) 16:58:00 435.465 / 435.565
GONETS M04 30 Aug 16:53:23 16:56:04 11° 280° (W) 16:57:53
AO-7 30 Aug 17:05:17 17:12:49 35° 262° (W) 17:20:12 29.400- 29.500
SRMSAT 30 Aug 17:12:00 17:16:04 19° 179° (S) 17:20:08 437.500
ISS 30 Aug 17:27:41 17:30:27 25° 229° (SW) 17:33:10 145.825
AIST 2 30 Aug 17:37:21 17:40:40 21° 308° (NW) 17:43:56 435.215
STARS 30 Aug 17:40:59 17:42:49 12° 293° (WNW) 17:44:24 437.465
Cubesat XI-IV 30 Aug 17:44:10 17:48:52 34° 71° (ENE) 17:53:39 437.490
JUGNU 30 Aug 17:54:44 17:57:15 13° 193° (SSW) 17:59:40 437.505
MOZHAYETS 4 30 Aug 17:56:47 18:00:54 33° 287° (WNW) 18:04:55
RS-15 30 Aug 18:04:52 18:15:04 41° 313° (NW) 18:25:30 29.354- 29.394
CUBESAT XI-V 30 Aug 18:09:56 18:13:39 24° 95° (E) 18:17:29 437.345
CUTE-I 30 Aug 18:28:52 18:34:11 88° 252° (WSW) 18:39:32 437.470
SRMSAT 30 Aug 19:01:04 19:04:34 16° 189° (S) 19:08:00 437.500
STRAND 1 30 Aug 19:05:39 19:09:41 24° 95° (E) 19:13:52 437.568
Cosmos 2491 30 Aug 19:06:39 19:12:11 19° 66° (ENE) 19:18:15 435.465 / 435.565
PRISM 30 Aug 19:10:58 19:13:24 16° 93° (E) 19:16:00 437.425
AIST 1 30 Aug 19:16:39 19:20:41 38° 79° (E) 19:24:46
O/OREOS (USA 219) 30 Aug 19:22:16 19:26:47 86° 286° (WNW) 19:31:22 437.305
Cubesat XI-IV 30 Aug 19:24:38 19:29:02 25° 265° (W) 19:33:19 437.490
BRITE-PL 30 Aug 19:41:03 19:45:18 74° 77° (ENE) 19:49:51 437.365/2234.400
HO-68 30 Aug 19:42:34 19:48:47 35° 67° (ENE) 19:55:10 435.675
CUBESAT XI-V 30 Aug 19:47:08 19:51:04 27° 288° (WNW) 19:54:56 437.345
CINEMA 3 30 Aug 19:55:02 19:57:30 15° 67° (ENE) 20:00:14 145.822/145.860
AAUSAT CUBESAT 2 30 Aug 19:57:04 19:58:12 11° 68° (ENE) 19:59:36 437.432
GOMX 1 30 Aug 20:16:07 20:20:30 79° 258° (WSW) 20:25:13 467.674
CUTE 1.7 + AOD 2 30 Aug 20:16:46 20:20:46 40° 74° (ENE) 20:24:48 437.475
RS-15 30 Aug 20:26:45 20:32:06 14° 344° (NNW) 20:37:12 29.354- 29.394
CANX-2 30 Aug 20:30:17 20:34:33 67° 76° (ENE) 20:38:49 2200.000
DOVE 4 30 Aug 20:35:29 20:39:59 83° 258° (WSW) 20:44:48 437.250
STRAND 1 30 Aug 20:44:24 20:48:57 33° 289° (WNW) 20:53:25 437.568
PRISM 30 Aug 20:45:15 20:48:56 32° 287° (WNW) 20:52:35 437.425
SEEDS 30 Aug 20:53:56 20:58:12 90° 254° (WSW) 21:02:28 437.485
Oscar 11 30 Aug 20:53:56 20:57:21 24° 71° (ENE) 21:00:53 145.826/435.025
AIST 1 30 Aug 20:55:47 20:58:02 13° 272° (W) 21:00:03
Cosmos 2491 30 Aug 21:01:24 21:10:10 78° 265° (W) 21:18:55 435.465 / 435.565
YUBILEINY 30 Aug 21:04:22 21:12:49 58° 92° (E) 21:21:26 435.215
COMPASS 1 30 Aug 21:17:58 21:22:08 59° 260° (W) 21:26:17 437.405
CUBEBUG 2 30 Aug 21:27:53 21:32:26 68° 75° (ENE) 21:37:07 437.445
AAUSAT CUBESAT 2 30 Aug 21:29:19 21:33:24 51° 261° (W) 21:37:30 437.432
HO-68 30 Aug 21:29:47 21:36:26 40° 262° (W) 21:43:02 435.675
CINEMA 3 30 Aug 21:29:47 21:34:15 49° 262° (W) 21:38:55 145.822/145.860
ZACube-1 30 Aug 21:33:24 21:37:40 43° 74° (ENE) 21:42:02 437.345
UWE-3 30 Aug 21:37:21 21:41:52 66° 76° (ENE) 21:46:30 435.000/436.395/437.385
FUNcube-1 30 Aug 21:39:16 21:43:36 49° 75° (ENE) 21:48:02 145.935
CUTE 1.7 + AOD 2 30 Aug 21:54:33 21:56:53 14° 269° (W) 21:59:00 437.475
DELFI C3 30 Aug 22:01:31 22:05:35 82° 256° (WSW) 22:09:39 145.870
DX 1 30 Aug 22:19:44 22:23:30 31° 72° (ENE) 22:27:21 434.975-435.025
ESTCUBE 1 30 Aug 22:21:25 22:23:47 15° 68° (ENE) 22:26:23 437.505/2401.250
HUMSAT D 30 Aug 22:27:49 22:32:06 70° 76° (ENE) 22:36:25 437.325/437.525
Oscar 11 30 Aug 22:29:51 22:33:27 24° 265° (W) 22:37:00 145.826/435.025
UKube-1 30 Aug 22:33:51 22:37:52 40° 73° (ENE) 22:41:56 .
AISAT 30 Aug 22:37:13 22:41:03 31° 72° (ENE) 22:44:58 437.250
CUBEBUG 1 30 Aug 22:42:07 22:45:09 20° 70° (ENE) 22:48:20 437.445
Cosmos 2504 30 Aug 22:45:14 22:51:59 32° 86° (E) 22:59:18 435.465 / 435.565
RS-15 30 Aug 22:45:24 22:51:35 16° 21° (NNE) 22:58:22 29.354- 29.394
50 SAT 30 Aug 22:48:22 22:52:09 47° 75° (ENE) 22:55:59 437.505
AUBIESAT-1 30 Aug 22:49:30 22:51:48 16° 96° (E) 22:54:09 437.475
UNISAT 6 30 Aug 22:50:08 22:54:15 33° 97° (E) 22:58:18 437.425
M-CUBED/EXP-1 PRIME 30 Aug 22:53:11 22:56:13 22° 98° (E) 22:59:08 437.505
QB50P2 30 Aug 22:57:26 22:59:20 13° 91° (E) 23:01:27 145.880/145.840
NANOSAT C BR1 30 Aug 22:59:21 23:01:14 13° 91° (E) 23:03:19 145.865
YUBILEINY 30 Aug 23:02:58 23:10:14 27° 290° (WNW) 23:17:14 435.215
Cosmos 2491 30 Aug 23:03:06 23:05:52 11° 280° (W) 23:07:46 435.465 / 435.565
VELOX 1 30 Aug 23:05:12 23:09:32 64° 75° (ENE) 23:13:55 145.980
QB50P1 30 Aug 23:11:35 23:14:36 19° 94° (E) 23:17:44 145.935-145.965
ZACube-1 30 Aug 23:11:42 23:14:17 14° 269° (W) 23:16:40 437.345
FUNcube-1 30 Aug 23:18:09 23:20:15 13° 270° (W) 23:22:06 145.935
TIGRISAT 30 Aug 23:18:50 23:23:25 72° 101° (E) 23:27:50 435.000
ANTELSAT 30 Aug 23:35:29 23:40:02 70° 284° (WNW) 23:44:27 437.575/2403.000
BEESAT 3 30 Aug 23:44:07 23:47:00 19° 51° (NE) 23:49:58 437.485
TISAT 1 30 Aug 23:50:18 23:53:10 19° 70° (ENE) 23:56:10 437.305
CUSAT 1 30 Aug 23:50:27 23:53:31 28° 89° (E) 23:57:27 437.405
BEESAT 2 30 Aug 23:54:37 23:57:30 19° 51° (NE) 00:00:26 435.950
ESTCUBE 1 30 Aug 23:56:03 00:00:20 43° 261° (W) 00:04:37 437.505/2401.250
DX 1 30 Aug 23:56:44 23:59:49 18° 266° (W) 00:02:47 434.975-435.025
DANDE 31 Aug 00:11:21 00:13:59 25° 89° (E) 00:17:18 436.750
POLYITAN 1 31 Aug 00:11:28 00:15:48 76° 282° (WNW) 00:20:05 437.675
UKube-1 31 Aug 00:11:52 00:14:12 14° 268° (W) 00:16:21 .
AISAT 31 Aug 00:14:30 00:17:41 19° 266° (W) 00:20:46 437.250
POPSAT HIP 1 31 Aug 00:14:30 00:18:48 72° 284° (WNW) 00:23:04 437.405
DUCHIFAT 1 31 Aug 00:15:55 00:20:12 72° 284° (WNW) 00:24:26 145.980
SPROUT 31 Aug 00:16:24 00:20:39 72° 77° (ENE) 00:24:58 437.525
CUBEBUG 1 31 Aug 00:17:32 00:21:20 29° 264° (W) 00:25:06 437.445
AUBIESAT-1 31 Aug 00:23:19 00:26:38 26° 294° (WNW) 00:29:41 437.475
SO-50 31 Aug 00:25:37 00:29:16 23° 111° (ESE) 00:33:09 436.795
UNISAT 6 31 Aug 00:27:32 00:30:47 19° 291° (WNW) 00:33:51 437.425
M-CUBED/EXP-1 PRIME 31 Aug 00:27:57 00:30:56 20° 295° (WNW) 00:33:39 437.505
BUGSAT 1 31 Aug 00:28:05 00:32:22 85° 282° (WNW) 00:36:37 437.445
QB50P2 31 Aug 00:31:23 00:35:28 42° 286° (WNW) 00:39:31 145.880/145.840
NANOSAT C BR1 31 Aug 00:33:14 00:37:19 42° 286° (WNW) 00:41:20 145.865
Cosmos 2504 31 Aug 00:36:18 00:43:56 46° 284° (WNW) 00:51:59 435.465 / 435.565
SWISSCUBE 31 Aug 00:37:09 00:38:52 12° 66° (ENE) 00:40:52 437.505
QB50P1 31 Aug 00:46:44 00:50:30 29° 288° (WNW) 00:54:11 145.935-145.965
PCSat 31 Aug 00:47:38 00:50:25 15° 106° (ESE) 00:53:29 145.827
RS-15 31 Aug 00:56:54 01:08:12 48° 51° (NE) 01:19:58 29.354- 29.394
ITUPSAT 1 31 Aug 01:12:45 01:16:41 27° 70° (ENE) 01:20:42 437.325
BEESAT 3 31 Aug 01:21:27 01:25:00 30° 247° (WSW) 01:28:26 437.485
TISAT 1 31 Aug 01:25:02 01:28:44 29° 264° (W) 01:32:25 437.305
BEESAT 2 31 Aug 01:32:00 01:35:37 31° 246° (WSW) 01:39:07 435.950
CUSAT 1 31 Aug 01:34:08 01:36:26 14° 297° (WNW) 01:38:50 437.405
BEESAT 31 Aug 01:45:43 01:50:26 63° 75° (ENE) 01:55:10 436.000
GONETS M04 31 Aug 01:53:46 02:00:09 25° 85° (E) 02:06:55
Oscar 19 31 Aug 01:55:35 02:00:34 47° 99° (E) 02:05:34 437.125/150
DANDE 31 Aug 01:56:07 01:57:29 12° 297° (WNW) 01:58:47 436.750
AIST 2 31 Aug 02:01:08 02:05:19 89° 60° (ENE) 02:09:24 435.215
SO-50 31 Aug 02:05:16 02:09:39 35° 306° (NW) 02:14:07 436.795
SWISSCUBE 31 Aug 02:11:33 02:16:15 61° 259° (W) 02:20:59 437.505
